Radiation Dose at Monitoring Post of Fukushima Daini Nuclear Power Station
Date,Time,MP-1(microSv/h),MP-2(microSv/h),MP-3(microSv/h),MP-4(microSv/h),MP-5(microSv/h),MP-6(microSv/h),MP-7(microSv/h),Wind Direction,Wind Velocity(m/s),Rain
2022/08/31,00:00,0.148,0.139,0.213,0.209,0.211,0.119,0.078,northwest,3.0,Yes
2022/08/31,00:10,0.149,0.137,0.214,0.208,0.210,0.118,0.078,northwest,3.1,Yes
2022/08/31,00:20,0.149,0.138,0.214,0.207,0.212,0.119,0.077,northwest,3.5,Yes
2022/08/31,00:30,0.149,0.140,0.213,0.210,0.211,0.119,0.079,north,2.7,Yes
2022/08/31,00:40,0.150,0.139,0.215,0.208,0.212,0.120,0.079,west-northwest,3.3,Yes
2022/08/31,00:50,0.148,0.140,0.214,0.207,0.213,0.120,0.078,north-northwest,2.6,Yes
2022/08/31,01:00,0.149,0.138,0.215,0.209,0.211,0.119,0.079,north-northwest,2.3,Yes
2022/08/31,01:10,0.148,0.139,0.214,0.207,0.214,0.120,0.079,northwest,1.7,Yes
2022/08/31,01:20,0.148,0.139,0.213,0.208,0.211,0.120,0.078,west,2.2,Yes
2022/08/31,01:30,0.149,0.138,0.216,0.206,0.211,0.119,0.078,northwest,2.6,Yes
2022/08/31,01:40,0.149,0.139,0.213,0.207,0.213,0.119,0.078,west-southwest,4.4,Yes
2022/08/31,01:50,0.147,0.137,0.213,0.207,0.209,0.118,0.078,northwest,3.3,Yes
2022/08/31,02:00,0.149,0.138,0.214,0.206,0.212,0.118,0.078,northwest,3.3,Yes
2022/08/31,02:10,0.146,0.137,0.211,0.208,0.211,0.118,0.078,north-northwest,4.7,Yes
2022/08/31,02:20,0.147,0.138,0.214,0.205,0.209,0.117,0.077,north-northwest,4.6,Yes
2022/08/31,02:30,0.147,0.137,0.212,0.205,0.212,0.117,0.076,north-northwest,4.8,Yes
2022/08/31,02:40,0.145,0.137,0.211,0.207,0.210,0.117,0.076,north-northwest,4.3,Yes
2022/08/31,02:50,0.147,0.138,0.213,0.204,0.209,0.117,0.076,north-northwest,4.4,Yes
2022/08/31,03:00,0.146,0.138,0.211,0.206,0.211,0.116,0.077,north-northwest,4.2,Yes
2022/08/31,03:10,0.146,0.137,0.213,0.206,0.209,0.117,0.076,north-northwest,3.2,Yes
2022/08/31,03:20,0.149,0.137,0.212,0.204,0.210,0.116,0.075,north-northwest,4.3,No
2022/08/31,03:30,0.145,0.136,0.212,0.205,0.210,0.117,0.076,north-northwest,3.8,No
2022/08/31,03:40,0.146,0.136,0.213,0.205,0.209,0.117,0.076,north-northwest,4.1,No
2022/08/31,03:50,0.145,0.136,0.211,0.204,0.211,0.116,0.076,north-northwest,3.5,No
2022/08/31,04:00,0.145,0.137,0.213,0.206,0.209,0.116,0.076,north-northwest,3.2,No
2022/08/31,04:10,0.146,0.136,0.211,0.204,0.208,0.116,0.075,north-northwest,2.6,No
2022/08/31,04:20,0.146,0.136,0.211,0.206,0.210,0.116,0.076,north-northwest,2.1,No
2022/08/31,04:30,0.145,0.136,0.213,0.205,0.208,0.116,0.075,north-northwest,2.5,No
2022/08/31,04:40,0.146,0.136,0.211,0.204,0.209,0.116,0.075,north-northwest,2.9,No
2022/08/31,04:50,0.145,0.135,0.214,0.206,0.210,0.115,0.075,north-northwest,2.2,No
2022/08/31,05:00,0.146,0.136,0.211,0.204,0.208,0.116,0.074,north,2.2,No
2022/08/31,05:10,0.146,0.135,0.212,0.205,0.209,0.115,0.076,north,1.9,No
2022/08/31,05:20,0.145,0.136,0.213,0.206,0.211,0.115,0.075,east-northeast,1.3,No
2022/08/31,05:30,0.147,0.135,0.211,0.204,0.207,0.117,0.075,north,1.4,No
2022/08/31,05:40,0.146,0.135,0.213,0.206,0.210,0.116,0.075,north,1.3,No
2022/08/31,05:50,0.145,0.136,0.211,0.205,0.210,0.115,0.075,north-northeast,0.7,No
2022/08/31,06:00,0.146,0.135,0.211,0.203,0.208,0.117,0.075,-,CALM,Yes
2022/08/31,06:10,0.146,0.135,0.213,0.207,0.210,0.117,0.075,-,CALM,No
2022/08/31,06:20,0.144,0.136,0.210,0.206,0.209,0.115,0.075,north-northeast,0.8,No
2022/08/31,06:30,0.146,0.135,0.210,0.204,0.207,0.117,0.075,-,CALM,No
2022/08/31,06:40,0.145,0.136,0.214,0.206,0.210,0.117,0.075,east-southeast,0.7,No
2022/08/31,06:50,0.145,0.136,0.212,0.205,0.210,0.116,0.075,-,CALM,No
2022/08/31,07:00,0.146,0.135,0.211,0.203,0.207,0.115,0.074,-,CALM,No
2022/08/31,07:10,0.145,0.137,0.212,0.207,0.210,0.116,0.075,east-southeast,0.6,No
2022/08/31,07:20,0.145,0.136,0.212,0.206,0.210,0.116,0.075,-,CALM,No
2022/08/31,07:30,0.147,0.134,0.212,0.204,0.209,0.115,0.074,northeast,0.8,No
2022/08/31,07:40,0.147,0.136,0.213,0.205,0.206,0.116,0.075,east-northeast,0.6,No
2022/08/31,07:50,0.144,0.136,0.213,0.206,0.209,0.116,0.075,southeast,0.7,No
2022/08/31,08:00,0.146,0.136,0.211,0.204,0.209,0.115,0.076,south-southeast,1.6,No
2022/08/31,08:10,0.147,0.135,0.213,0.204,0.209,0.117,0.075,south-southeast,2.0,Yes
2022/08/31,08:20,0.146,0.135,0.214,0.207,0.207,0.116,0.075,southeast,2.1,No
2022/08/31,08:30,0.145,0.136,0.211,0.206,0.210,0.116,0.075,southeast,1.9,No
2022/08/31,08:40,0.145,0.135,0.211,0.205,0.211,0.115,0.075,southeast,1.5,No
2022/08/31,08:50,0.147,0.135,0.213,0.205,0.209,0.117,0.075,east-southeast,2.3,No
2022/08/31,09:00,0.146,0.136,0.214,0.207,0.207,0.116,0.075,southeast,2.8,No
2022/08/31,09:10,0.144,0.136,0.211,0.205,0.209,0.117,0.077,southeast,3.0,No
2022/08/31,09:20,0.146,0.136,0.211,0.204,0.211,0.116,0.075,south-southeast,3.1,No
2022/08/31,09:30,0.146,0.136,0.213,0.206,0.209,0.117,0.075,southeast,2.6,No
2022/08/31,09:40,0.146,0.137,0.213,0.208,0.207,0.116,0.075,south-southeast,3.2,No
2022/08/31,09:50,0.145,0.136,0.212,0.205,0.209,0.116,0.075,south-southeast,4.0,No
2022/08/31,10:00,0.146,0.135,0.213,0.204,0.212,0.116,0.075,south-southeast,4.5,No
2022/08/31,10:10,0.147,0.135,0.213,0.205,0.210,0.117,0.074,south-southeast,4.3,Yes
2022/08/31,10:20,0.144,0.137,0.213,0.207,0.207,0.116,0.074,south,3.6,No
2022/08/31,10:30,0.145,0.137,0.211,0.206,0.208,0.116,0.075,south,3.4,No
2022/08/31,10:40,0.144,0.136,0.212,0.204,0.207,0.116,0.075,south,3.7,No
2022/08/31,10:50,0.144,0.136,0.211,0.206,0.208,0.116,0.076,south,2.8,No
2022/08/31,11:00,0.144,0.137,0.211,0.205,0.208,0.116,0.076,south-southeast,1.9,No
2022/08/31,11:10,0.145,0.136,0.212,0.206,0.209,0.116,0.075,southeast,3.7,No
2022/08/31,11:20,0.145,0.136,0.213,0.206,0.210,0.116,0.075,south-southeast,3.1,No
2022/08/31,11:30,0.145,0.136,0.212,0.206,0.211,0.117,0.075,south-southeast,3.3,No
2022/08/31,11:40,0.145,0.137,0.213,0.206,0.210,0.117,0.075,south,3.9,No
2022/08/31,11:50,0.145,0.135,0.213,0.206,0.209,0.116,0.075,south,4.8,No
2022/08/31,12:00,0.145,0.135,0.212,0.206,0.210,0.117,0.075,south,4.7,No
2022/08/31,12:10,0.145,0.136,0.213,0.205,0.208,0.116,0.075,south-southeast,5.9,No
2022/08/31,12:20,0.145,0.137,0.213,0.206,0.210,0.118,0.075,south,5.4,No
2022/08/31,12:30,0.145,0.136,0.213,0.205,0.210,0.117,0.075,south,5.5,No
2022/08/31,12:40,0.145,0.136,0.213,0.206,0.209,0.116,0.074,south-southeast,5.3,No
2022/08/31,12:50,0.145,0.136,0.213,0.206,0.210,0.116,0.074,south,5.5,No
2022/08/31,13:00,0.144,0.136,0.212,0.204,0.210,0.117,0.075,south-southeast,5.5,No
2022/08/31,13:10,0.145,0.136,0.212,0.205,0.209,0.118,0.075,south,6.6,No
2022/08/31,13:20,0.146,0.136,0.212,0.205,0.209,0.118,0.075,south,7.1,No
2022/08/31,13:30,0.146,0.136,0.212,0.207,0.210,0.118,0.075,south-southeast,7.0,No
2022/08/31,13:40,0.148,0.136,0.212,0.208,0.208,0.117,0.075,south-southeast,6.1,No
2022/08/31,13:50,0.148,0.136,0.213,0.208,0.209,0.117,0.076,south-southeast,5.3,No
2022/08/31,14:00,0.147,0.137,0.213,0.208,0.209,0.117,0.075,south-southeast,6.6,No
2022/08/31,14:10,0.146,0.138,0.212,0.206,0.210,0.117,0.075,south-southeast,7.6,No
2022/08/31,14:20,0.145,0.137,0.213,0.206,0.208,0.117,0.075,south-southeast,8.1,No
2022/08/31,14:30,0.145,0.137,0.213,0.206,0.208,0.118,0.075,south-southeast,8.9,No
2022/08/31,14:40,0.145,0.136,0.213,0.206,0.209,0.118,0.075,south-southeast,8.6,No
2022/08/31,14:50,0.146,0.136,0.214,0.205,0.210,0.117,0.076,south-southeast,9.0,No
2022/08/31,15:00,0.148,0.136,0.217,0.207,0.214,0.117,0.075,south-southeast,8.9,No
2022/08/31,15:10,0.148,0.136,0.215,0.209,0.213,0.117,0.074,south,9.5,No
2022/08/31,15:20,0.146,0.135,0.214,0.208,0.211,0.118,0.075,south-southeast,8.6,No
2022/08/31,15:30,0.146,0.137,0.214,0.206,0.210,0.117,0.075,south-southeast,7.9,No
2022/08/31,15:40,0.145,0.138,0.213,0.206,0.210,0.117,0.075,south-southeast,7.3,No
2022/08/31,15:50,0.145,0.137,0.213,0.206,0.209,0.117,0.075,south-southeast,7.5,No
2022/08/31,16:00,0.148,0.136,0.216,0.210,0.212,0.116,0.074,south-southeast,6.8,No
2022/08/31,16:10,0.148,0.136,0.215,0.209,0.213,0.117,0.074,south,6.8,No
2022/08/31,16:20,0.148,0.135,0.215,0.207,0.211,0.116,0.075,south,5.9,No
2022/08/31,16:30,0.146,0.136,0.213,0.206,0.210,0.117,0.075,south,6.0,No
2022/08/31,16:40,0.146,0.137,0.212,0.206,0.209,0.118,0.075,south,5.7,No
2022/08/31,16:50,0.145,0.137,0.213,0.206,0.208,0.118,0.076,south-southeast,7.0,No
2022/08/31,17:00,0.147,0.137,0.214,0.208,0.208,0.117,0.075,south,7.4,No
2022/08/31,17:10,0.148,0.136,0.216,0.209,0.209,0.117,0.074,south,8.1,No
2022/08/31,17:20,0.147,0.136,0.216,0.208,0.212,0.117,0.076,south,8.1,No
2022/08/31,17:30,0.146,0.137,0.214,0.208,0.212,0.117,0.075,south,7.1,No
2022/08/31,17:40,0.145,0.138,0.213,0.205,0.210,0.118,0.075,south,7.1,No
2022/08/31,17:50,0.146,0.137,0.213,0.208,0.208,0.117,0.074,south,6.6,No
2022/08/31,18:00,0.148,0.137,0.216,0.209,0.210,0.117,0.075,south,6.5,No
2022/08/31,18:10,0.147,0.136,0.215,0.208,0.212,0.117,0.075,south,6.5,No
2022/08/31,18:20,0.145,0.137,0.214,0.206,0.212,0.117,0.075,south,6.8,No
2022/08/31,18:30,0.146,0.138,0.213,0.208,0.210,0.117,0.075,south,6.5,No
2022/08/31,18:40,0.148,0.136,0.216,0.209,0.210,0.118,0.074,south-southwest,6.2,No
2022/08/31,18:50,0.148,0.137,0.215,0.208,0.213,0.117,0.075,south-southwest,6.4,No
2022/08/31,19:00,0.146,0.137,0.213,0.206,0.211,0.117,0.075,south,7.1,No
2022/08/31,19:10,0.145,0.136,0.215,0.209,0.209,0.117,0.075,south,8.1,Yes
2022/08/31,19:20,0.148,0.136,0.216,0.210,0.209,0.118,0.075,south,8.6,No
2022/08/31,19:30,0.147,0.138,0.215,0.207,0.212,0.118,0.075,south,8.7,No
2022/08/31,19:40,0.146,0.137,0.213,0.207,0.212,0.117,0.076,south,9.5,No
2022/08/31,19:50,0.147,0.136,0.215,0.209,0.209,0.117,0.075,south,8.1,No
2022/08/31,20:00,0.148,0.136,0.215,0.209,0.210,0.118,0.074,south,8.2,No
2022/08/31,20:10,0.146,0.137,0.213,0.207,0.212,0.117,0.075,south,7.5,No
2022/08/31,20:20,0.145,0.136,0.214,0.207,0.210,0.117,0.075,south,8.7,No
2022/08/31,20:30,0.147,0.136,0.215,0.208,0.210,0.116,0.075,south,9.0,No
2022/08/31,20:40,0.147,0.137,0.214,0.209,0.211,0.119,0.075,south,7.5,No
2022/08/31,20:50,0.147,0.137,0.213,0.206,0.211,0.117,0.076,south,7.6,No
2022/08/31,21:00,0.146,0.136,0.216,0.206,0.210,0.117,0.076,south,8.8,No
2022/08/31,21:10,0.148,0.138,0.216,0.210,0.209,0.117,0.075,south,8.1,No
2022/08/31,21:20,0.147,0.138,0.213,0.208,0.211,0.118,0.075,south,7.0,No
2022/08/31,21:30,0.146,0.136,0.214,0.207,0.212,0.117,0.075,south,8.4,No
2022/08/31,21:40,0.146,0.136,0.216,0.207,0.210,0.117,0.076,south,8.1,No
2022/08/31,21:50,0.148,0.138,0.215,0.210,0.209,0.116,0.075,south,7.8,No
2022/08/31,22:00,0.148,0.137,0.213,0.207,0.211,0.117,0.075,south,8.6,No
2022/08/31,22:10,0.147,0.136,0.216,0.206,0.212,0.118,0.075,south,7.4,No
2022/08/31,22:20,0.148,0.138,0.215,0.209,0.210,0.118,0.075,south,7.9,No
2022/08/31,22:30,0.148,0.137,0.214,0.209,0.211,0.117,0.075,south,7.3,No
2022/08/31,22:40,0.147,0.136,0.213,0.207,0.213,0.117,0.075,south,5.9,No
2022/08/31,22:50,0.146,0.137,0.215,0.205,0.211,0.118,0.075,south,7.0,No
2022/08/31,23:00,0.149,0.137,0.214,0.209,0.209,0.118,0.075,south,6.3,No
2022/08/31,23:10,0.146,0.136,0.214,0.209,0.211,0.117,0.075,south,6.9,No
2022/08/31,23:20,0.146,0.137,0.215,0.207,0.212,0.117,0.076,south,5.2,No
2022/08/31,23:30,0.148,0.137,0.215,0.207,0.210,0.117,0.076,south,4.8,No
2022/08/31,23:40,0.147,0.137,0.213,0.210,0.208,0.117,0.075,south,4.5,No
2022/08/31,23:50,0.146,0.138,0.216,0.209,0.213,0.117,0.076,south,4.6,No
